DW3478 Weather Reports


Display with metric or nautical units.
time (UTC)temp
F
wind
direction
speed
MPH
gust
MPH
rain 1hr
in
rain 24hr
in
rain mn
in
humidity
%
barometer
mb
20260905214305 70 81 2.0 3.0 0.00 0.00 0.00 68 1022.0
20260905213804 70 73 2.0 5.0 0.00 0.00 0.00 69 1022.0
20260905213305 70 39 2.0 6.0 0.00 0.00 0.00 69 1022.0
20260905212306 70 33 3.0 8.0 0.00 0.00 0.00 70 1022.0
20260905211805 70 31 2.0 3.0 0.00 0.00 0.00 72 1022.0
20260905211305 71 36 1.0 5.0 0.00 0.00 0.00 75 1022.0
20260905205306 72 250 0.0 1.0 0.00 0.00 0.00 82 1022.0
20260905202804 72 243 0.0 2.0 0.00 0.00 0.00 81 1021.0
20260905202306 72 243 1.0 3.0 0.00 0.00 0.00 81 1021.0
20260905195804 73 234 1.0 2.0 0.00 0.00 0.00 79 1021.0
20260905195306 73 229 1.0 2.0 0.00 0.00 0.00 79 1021.0
20260905194804 73 257 0.0 3.0 0.00 0.00 0.00 79 1021.0
20260905194304 73 252 1.0 2.0 0.00 0.00 0.00 79 1021.0
20260905193804 73 168 0.0 1.0 0.00 0.00 0.00 79 1021.0
20260905193305 73 168 1.0 2.0 0.00 0.00 0.00 79 1021.0
20260905192804 73 168 1.0 2.0 0.00 0.00 0.00 79 1021.0
20260905192306 73 168 0.0 2.0 0.00 0.00 0.00 79 1021.0
20260905191805 73 178 0.0 1.0 0.00 0.00 0.00 79 1021.0
20260905191304 73 181 0.0 3.0 0.00 0.00 0.00 79 1021.0
20260905185804 73 188 2.0 3.0 0.00 0.00 0.00 79 1021.0
20260905185306 73 122 2.0 3.0 0.00 0.00 0.00 79 1021.0
20260905183804 73 192 2.0 3.0 0.00 0.00 0.00 79 1021.0
20260905183304 73 194 2.0 3.0 0.00 0.00 0.00 78 1021.0
20260905172305 73 248 3.0 5.0 0.00 0.00 0.00 78 1020.0
20260905171804 74 219 3.0 6.0 0.00 0.00 0.00 78 1020.0
20260905171304 74 247 3.0 3.0 0.00 0.00 0.00 78 1020.0
20260905164804 74 237 2.0 3.0 0.00 0.00 0.00 78 1020.0
20260905164305 75 243 3.0 3.0 0.00 0.00 0.00 76 1020.0
20260905163804 74 254 2.0 3.0 0.00 0.00 0.00 77 1021.0
20260905163304 74 258 3.0 5.0 0.00 0.00 0.00 78 1021.0
20260905162805 74 252 3.0 5.0 0.00 0.00 0.00 77 1021.0
20260905162306 74 231 3.0 5.0 0.00 0.00 0.00 77 1021.0
20260905154305 76 203 5.0 9.0 0.00 0.00 0.00 72 1021.0
20260905153304 76 227 3.0 6.0 0.00 0.00 0.00 73 1021.0
20260905145307 76 198 5.0 7.0 0.00 0.00 0.00 73 1021.0
20260905144805 75 217 3.0 8.0 0.00 0.00 0.00 75 1021.0
20260905144305 76 232 5.0 7.0 0.00 0.00 0.00 73 1021.0
20260905143806 76 189 5.0 9.0 0.00 0.00 0.00 74 1021.0
20260905143305 75 223 5.0 7.0 0.00 0.00 0.00 75 1021.0
20260905142806 75 205 3.0 7.0 0.00 0.00 0.00 73 1021.0
20260905141305 78 201 4.0 7.0 0.00 0.00 0.00 70 1021.0
20260905140806 78 188 4.0 7.0 0.00 0.00 0.00 69 1021.0
20260905135307 77 198 4.0 9.0 0.00 0.00 0.00 67 1021.0
20260905134805 76 189 5.0 7.0 0.00 0.00 0.00 72 1021.0
20260905134306 75 226 4.0 6.0 0.00 0.00 0.00 71 1021.0
20260905131805 77 206 5.0 9.0 0.00 0.00 0.00 69 1021.0
20260905131305 77 205 3.0 7.0 0.00 0.00 0.00 71 1021.0
20260905130305 77 197 4.0 7.0 0.00 0.00 0.00 69 1021.0
20260905125805 76 195 4.0 12.0 0.00 0.00 0.00 72 1021.0
20260905125306 76 216 5.0 10.0 0.00 0.00 0.00 72 1021.0
20260905123306 76 228 5.0 9.0 0.00 0.00 0.00 72 1021.0
20260905121805 76 237 5.0 9.0 0.00 0.00 0.00 73 1021.0
20260905121305 76 220 4.0 6.0 0.00 0.00 0.00 73 1021.0
20260905120305 75 215 4.0 7.0 0.00 0.00 0.00 74 1021.0
20260905114305 75 195 3.0 7.0 0.00 0.00 0.00 72 1021.0
20260905113806 77 182 3.0 6.0 0.00 0.00 0.00 72 1021.0
20260905112805 75 255 3.0 7.0 0.00 0.00 0.00 73 1021.0
20260905112306 76 257 2.0 6.0 0.00 0.00 0.00 74 1021.0
20260905111805 73 238 2.0 3.0 0.00 0.00 0.00 78 1021.0
20260905111305 72 232 3.0 5.0 0.00 0.00 0.00 78 1021.0
20260905110805 73 235 2.0 6.0 0.00 0.00 0.00 78 1021.0
20260905110305 73 185 2.0 5.0 0.00 0.00 0.00 77 1021.0
20260905105306 73 213 3.0 5.0 0.00 0.00 0.00 76 1021.0
20260905104805 74 235 4.0 6.0 0.00 0.00 0.00 75 1021.0
20260905104306 73 201 2.0 5.0 0.00 0.00 0.00 77 1021.0
20260905101805 73 234 3.0 5.0 0.00 0.00 0.00 76 1021.0
20260905101305 73 241 3.0 6.0 0.00 0.00 0.00 77 1021.0
20260905100805 72 246 2.0 5.0 0.00 0.00 0.00 78 1021.0
20260905100305 72 248 2.0 5.0 0.00 0.00 0.00 79 1021.0
20260905095306 72 250 3.0 5.0 0.00 0.00 0.00 79 1021.0
20260905094806 73 201 4.0 6.0 0.00 0.00 0.00 77 1021.0
20260905094305 73 195 3.0 6.0 0.00 0.00 0.00 78 1021.0
20260905090305 73 92 2.0 5.0 0.00 0.00 0.00 74 1021.0
20260905085805 73 161 2.0 5.0 0.00 0.00 0.00 72 1021.0
20260905085306 73 89 2.0 6.0 0.00 0.00 0.00 74 1021.0
20260905084805 73 139 3.0 6.0 0.00 0.00 0.00 74 1021.0
20260905081305 71 45 0.0 2.0 0.00 0.00 0.00 81 1020.0
20260905080805 70 56 0.0 2.0 0.00 0.00 0.00 80 1020.0
20260905080306 71 69 0.0 2.0 0.00 0.00 0.00 80 1020.0
20260905075805 71 85 0.0 1.0 0.00 0.00 0.00 82 1020.0
20260905075306 70 35 1.0 2.0 0.00 0.00 0.00 84 1020.0
20260905074805 68 36 1.0 2.0 0.00 0.00 0.00 89 1020.0
20260905074305 67 90 1.0 2.0 0.00 0.00 0.00 89 1020.0
20260905073805 67 68 1.0 2.0 0.00 0.00 0.00 89 1020.0
20260905072306 66 49 1.0 3.0 0.00 0.00 0.00 89 1020.0
20260905065805 66 35 2.0 3.0 0.00 0.00 0.00 88 1020.0
20260905064805 66 31 2.0 3.0 0.00 0.00 0.00 88 1020.0
20260905062805 66 26 2.0 3.0 0.00 0.00 0.00 88 1019.0
20260905061304 66 32 2.0 3.0 0.00 0.00 0.00 88 1019.0
20260905060805 66 34 2.0 3.0 0.00 0.00 0.00 88 1019.0
20260905054305 66 33 2.0 3.0 0.00 0.00 0.00 87 1019.0
20260905053805 66 28 2.0 3.0 0.00 0.00 0.00 87 1019.0
20260905052805 66 29 2.0 3.0 0.00 0.00 0.00 87 1019.0
20260905052306 66 18 2.0 3.0 0.00 0.00 0.00 87 1019.0
20260905051805 66 22 2.0 3.0 0.00 0.00 0.00 87 1019.0
20260905051305 66 26 2.0 3.0 0.00 0.00 0.00 87 1019.0
20260905044805 66 19 2.0 3.0 0.00 0.00 0.00 87 1019.0
20260905044304 66 21 2.0 3.0 0.00 0.00 0.00 87 1019.0
20260905043805 66 23 2.0 3.0 0.00 0.00 0.00 87 1020.0
20260905042805 66 33 1.0 3.0 0.00 0.00 0.00 86 1020.0
20260905042307 66 33 1.0 3.0 0.00 0.00 0.00 86 1020.0
20260905040305 67 31 2.0 3.0 0.00 0.00 0.00 86 1020.0
20260905035805 66 17 1.0 2.0 0.00 0.00 0.00 86 1020.0
20260905033305 66 24 1.0 2.0 0.00 0.00 0.00 85 1020.0
20260905031805 67 14 1.0 2.0 0.00 0.00 0.00 84 1020.0
20260905031304 67 14 1.0 1.0 0.00 0.00 0.00 84 1020.0
20260905030304 67 12 0.0 2.0 0.00 0.00 0.00 84 1020.0
20260905025804 67 24 1.0 2.0 0.00 0.00 0.00 84 1020.0
20260905024804 67 32 1.0 2.0 0.00 0.00 0.00 84 1020.0
20260905024305 67 30 1.0 3.0 0.00 0.00 0.00 84 1020.0
20260905023806 67 21 1.0 3.0 0.00 0.00 0.00 83 1021.0
20260905021304 69 1 0.0 1.0 0.00 0.00 0.00 82 1021.0
20260905020805 69 8 0.0 0.0 0.00 0.00 0.00 82 1021.0
20260905015306 69 20 0.0 1.0 0.00 0.00 0.00 82 1021.0
20260905014804 69 45 0.0 1.0 0.00 0.00 0.00 82 1021.0
20260905014305 69 32 0.0 1.0 0.00 0.00 0.00 82 1021.0
20260905013805 69 33 0.0 2.0 0.00 0.00 0.00 82 1021.0
20260905010805 70 16 0.0 2.0 0.00 0.00 0.00 83 1021.0
20260905010305 70 92 0.0 1.0 0.00 0.00 0.00 83 1021.0
20260905005805 70 41 1.0 3.0 0.00 0.00 0.00 83 1021.0
20260905005306 70 37 0.0 1.0 0.00 0.00 0.00 83 1021.0
20260905004805 70 65 0.0 1.0 0.00 0.00 0.00 83 1021.0
20260905002805 70 98 0.0 1.0 0.00 0.00 0.00 84 1021.0
20260905002306 70 86 0.0 3.0 0.00 0.00 0.00 84 1021.0
20260905001804 70 82 0.0 1.0 0.00 0.00 0.00 84 1021.0
20260905001305 70 93 0.0 1.0 0.00 0.00 0.00 84 1021.0
20260905000305 70 92 0.0 1.0 0.00 0.00 0.00 84 1021.0
20260904234305 70 52 0.0 2.0 0.00 0.00 0.00 85 1021.0
20260904233804 69 38 0.0 1.0 0.00 0.00 0.00 85 1021.0
20260904233304 69 5 0.0 3.0 0.00 0.00 0.00 85 1021.0
20260904232805 69 23 1.0 3.0 0.00 0.00 0.00 85 1021.0
20260904232306 69 22 0.0 2.0 0.00 0.00 0.00 85 1021.0
20260904231305 69 9 0.0 3.0 0.00 0.00 0.00 85 1021.0
20260904225805 69 0 0.0 3.0 0.00 0.00 0.00 85 1021.0
20260904225306 69 340 1.0 3.0 0.00 0.00 0.00 86 1021.0
20260904224805 69 72 0.0 2.0 0.00 0.00 0.00 86 1021.0
20260904224305 69 354 0.0 3.0 0.00 0.00 0.00 86 1021.0
20260904223305 69 339 0.0 3.0 0.00 0.00 0.00 86 1022.0
20260904220804 69 333 0.0 1.0 0.00 0.00 0.00 86 1021.0
20260904220304 69 334 0.0 1.0 0.00 0.00 0.00 85 1021.0
20260904215805 69 4 0.0 1.0 0.00 0.00 0.00 85 1021.0
20260904214804 69 23 0.0 0.0 0.00 0.00 0.00 85 1021.0